Weather observations for the past three days for
Albert Whitted Airport
Metric (Imperial)
Date Time (edt) Wind (kph) Vis. (km) Weather Sky Cond. Temperature (ºC) Relative Humidity Wind Chill (°C) Heat Index (°C) Pressure Precipitation (cm)
Air Dwpt 6 hour altimeter (cm) sea level (mb) 1 hr 3 hr 6 hr
Max. Min.
07 04:53 E 11 16.09 Fair CLR 25.6 22.8 85% 27 76.1 1014.4
07 03:53 E 11 16.09 Fair CLR 25.6 22.8 85% 27 76.05 1013.9
07 02:53 E 11 16.09 Fair CLR 25.6 22.8 85% 27 76.1 1014.5
07 01:53 E 13 16.09 Partly Cloudy SCT012 25.6 22.2 27.2 25.6 82% 27 76.15 1015.1
07 00:53 N 9 16.09 Fair CLR 25.6 22.2 82% 27 76.17 1015.5
06 23:53 N 9 16.09 Fair CLR 25.6 22.2 82% 27 76.2 1015.8
06 22:53 N 6 16.09 Fair CLR 26.1 22.2 79% 28 76.17 1015.6
06 21:53 NW 6 16.09 Fair CLR 26.1 22.8 82% 28 76.15 1015.2
06 20:53 W 15 16.09 Fair CLR 26.1 22.2 79% 28 76.15 1015.1
06 19:53 W 17 16.09 Fair CLR 27.2 22.2 30 27.2 74% 30 76.12 1014.9
06 18:53 SW 19 16.09 Fair CLR 28.3 20.6 63% 30 76.12 1014.7
06 17:53 W 17 16.09 Fair CLR 29.4 21.1 61% 32 76.12 1014.9
06 16:53 SW 15 16.09 Fair CLR 28.9 21.7 65% 32 76.12 1014.9
06 15:53 W 19 16.09 Fair CLR 28.9 22.8 70% 32 76.15 1015.1
06 14:53 SW 17 16.09 Fair CLR 29.4 22.2 65% 33 76.17 1015.6
06 13:53 SW 15 16.09 Fair CLR 29.4 21.7 30.6 23.9 63% 32 76.23 1016.2
06 12:53 SW 13 16.09 Fair CLR 29.4 20.6 59% 32 76.25 1016.6
06 11:53 S 11 16.09 Fair CLR 29.4 20.6 59% 32 76.28 1016.7
06 10:53 S 11 16.09 Fair CLR 28.9 21.1 63% 31 76.25 1016.6
06 09:53 SE 15 16.09 Fair CLR 26.7 21.1 71% 28 76.25 1016.4
06 08:53 S 19 16.09 Fair CLR 25 21.1 79% 26 76.23 1016.3
06 07:53 SE 20 16.09 Fair CLR 23.9 21.1 25 23.3 84% 24 76.17 1015.6
06 06:53 SE 17 16.09 Fair CLR 23.3 20.6 85% 76.15 1015.2
06 05:53 S 17 16.09 Fair CLR 23.3 20 82% 76.12 1014.9
06 04:53 SE 17 16.09 Fair CLR 23.9 20 79% 24 76.12 1014.7
06 03:53 SE 17 16.09 Fair CLR 24.4 19.4 74% 25 76.12 1014.9
06 02:53 SE 19 16.09 Fair CLR 24.4 18.9 72% 25 76.15 1015.1
06 01:53 SE 22 16.09 Fair CLR 25 18.9 26.7 25 69% 26 76.17 1015.6
06 00:53 SE 24 16.09 Fair CLR 25.6 5 27% 26 76.23 1016.0
05 23:53 SE 30 16.09 Mostly Cloudy BKN045 26.1 6.1 28% 26 76.2 1015.8
05 22:53 N 9 16.09 Fair CLR 25.6 10 37% 26 76.2 1015.7
05 21:53 N 7 16.09 Fair CLR 26.1 9.4 35% 26 76.12 1014.9
05 20:53 N 9 16.09 Fair CLR 26.7 8.9 33% 26 76.1 1014.4
05 19:53 NW 15 16.09 Fair CLR 27.2 8.9 32.2 27.2 32% 27 76.05 1013.8
05 18:53 NW 17 16.09 Fair CLR 28.3 8.3 28% 27 76.05 1013.6
05 17:53 Vrbl 11 16.09 Fair CLR 28.9 7.8 27% 28 76.05 1013.6
05 16:53 W 9 16.09 Fair CLR 29.4 7.2 25% 28 76.02 1013.3
05 15:53 Calm 16.09 Fair CLR 31.7 7.8 23% 30 76.07 1014.0
05 14:53 Calm 16.09 Fair CLR 31.1 7.8 23% 29 76.1 1014.4
05 13:53 NE 6 16.09 Fair CLR 30 7.8 30 23.3 25% 28 76.15 1015.1
05 12:53 SE 7 16.09 Fair CLR 28.9 7.2 25% 28 76.2 1015.8
05 11:53 SE 13 16.09 Mostly Cloudy SCT044 BKN060 28.3 7.8 27% 27 76.2 1015.8
05 10:53 SE 17 16.09 Mostly Cloudy BKN038 27.8 7.8 28% 27 76.2 1015.8
05 09:53 SE 20 16.09 Fair CLR 26.1 7.2 30% 26 76.17 1015.3
05 08:53 E 20 16.09 Overcast OVC037 24.4 7.8 35% 25 76.15 1015.2
05 07:53 E 19 16.09 Overcast OVC040 23.3 7.2 23.9 22.8 36% 76.15 1015.3
05 06:53 E 19 16.09 Overcast OVC040 23.3 7.2 36% 76.1 1014.4
05 05:53 E 19 16.09 Fair CLR 23.3 7.8 37% 76.05 1014.0
05 04:53 E 19 16.09 Fair CLR 22.8 7.2 37% 76.02 1013.5
05 03:53 E 22 16.09 Partly Cloudy SCT049 23.3 6.7 34% 76.02 1013.6
05 02:53 E 19 16.09 Fair CLR 23.3 11.1 46% 76.07 1014.0
05 01:53 E 20 16.09 Overcast FEW038 BKN046 OVC060 23.9 18.3 27.8 23.9 71% 25 76.12 1014.9
05 00:53 E 19 16.09 Overcast FEW028 OVC040 23.9 17.2 66% 25 76.17 1015.4
04 23:53 E 22 16.09 Overcast SCT033 OVC042 24.4 17.2 64% 25 76.17 1015.5
04 22:53 E 19 16.09 Overcast SCT036 BKN048 OVC075 25 17.2 62% 26 76.2 1015.7
04 21:53 E 26 16.09 Mostly Cloudy SCT045 BKN055 BKN070 25.6 17.8 62% 27 76.15 1015.1
04 20:53 E 30 G 43 16.09 Overcast BKN050 OVC060 26.7 17.8 58% 28 76.1 1014.4
04 19:53 E 20 16.09 Overcast BKN055 BKN070 OVC090 27.8 18.3 30.6 27.8 56% 29 76 1013.3
04 18:53 NE 7 16.09 Fair CLR 28.9 17.2 49% 29 75.97 1012.8
04 17:53 NE 6 16.09 Fair CLR 30 15.6 42% 30 76 1013.0
04 16:53 NE 9 16.09 Fair CLR 30 14.4 39% 30 76 1013.2
04 15:53 NE 13 16.09 Fair CLR 29.4 15 42% 29 76.05 1013.8
04 14:53 NE 11 16.09 Fair CLR 28.3 14.4 43% 28 76.1 1014.5
04 13:53 NE 11 16.09 Fair CLR 28.3 13.9 28.3 22.8 41% 28 76.17 1015.6
04 12:53 E 20 16.09 Fair CLR 27.8 14.4 44% 28 76.23 1016.2
04 11:53 E 24 16.09 Fair CLR 27.2 15 47% 27 76.28 1016.8
04 10:53 E 28 16.09 Fair CLR 25.6 16.1 56% 26 76.28 1016.9
04 09:53 E 30 16.09 Fair CLR 24.4 16.7 62% 25 76.28 1016.8
04 08:53 NE 28 16.09 Fair CLR 23.3 16.7 67% 76.25 1016.3
04 07:53 E 26 16.09 Fair CLR 22.8 17.2 23.3 21.7 71% 76.2 1015.9
04 06:53 NE 24 16.09 Mostly Cloudy BKN060 22.2 16.7 71% 76.17 1015.4
04 05:53 N 22 16.09 Fair CLR 22.2 17.2 73% 76.15 1015.1
Date Time (edt) Wind (kph) Vis. (km) Weather Sky Cond. Air Dwpt Max. Min. Relative Humidity Wind Chill (°C) Heat Index (°C) altimeter (cm) sea level (mb) 1 hr 3 hr 6 hr
6 hour
Temperature (ºC) Pressure Precipitation (cm)